Location: Caltech
(34.1382°N, 118.1253°W)
Time: 10:11:14
(UTC-07:00)

Iridium 21 - Visible Passes

Search period start: 26 April 2018 00:00
Search period end: 06 May 2018 00:00
Orbit: 776 x 779 km, 86.4° (Epoch: 26 April)

Date Brightness Start Highest point End Pass type
(mag) Time Alt. Az. Time Alt. Az. Time Alt. Az.
26 Apr 5.7 04:21:43 10° N 04:26:56 71° E 04:32:07 10° S visible
27 Apr 6.9 03:48:33 10° NNE 03:53:21 36° E 03:58:06 10° SSE visible
27 Apr 6.8 05:29:58 10° NW 05:33:44 21° W 05:37:30 10° SW visible
28 Apr 7.9 03:15:58 10° NE 03:19:37 19° E 03:23:16 10° SE visible
28 Apr 6.0 04:55:37 10° NNW 05:00:26 39° W 05:05:07 11° SSW visible
29 Apr 5.4 04:21:49 10° N 04:27:02 78° W 04:31:00 18° S visible
30 Apr 6.1 03:48:24 10° N 03:53:31 54° E 03:56:57 20° SSE visible
30 Apr 7.3 05:31:08 10° NW 05:33:39 14° W 05:36:11 10° WSW visible
01 May 7.3 03:15:25 10° NNE 03:19:52 28° E 03:22:58 16° SE visible
01 May 6.5 04:56:08 10° NNW 05:00:26 26° W 05:03:24 16° SW visible
02 May 8.1 02:43:16 10° NE 02:46:06 15° ENE 02:48:55 10° ESE visible
02 May 5.7 04:22:03 10° NNW 04:27:06 51° W 04:29:28 29° SSW visible
03 May 5.5 03:48:24 10° N 03:53:38 82° E 03:55:35 40° S visible
04 May 6.6 03:15:08 10° NNE 03:20:04 41° E 03:21:45 32° SE visible
04 May 7.0 04:56:57 10° NW 05:00:23 18° W 05:02:12 15° WSW visible
05 May 7.5 02:42:24 10° NNE 02:46:23 22° E 02:47:57 19° ESE visible
05 May 6.2 04:22:26 10° NNW 04:27:07 34° W 04:28:23 30° WSW visible
